GW1542 Weather Reports


Display with metric or nautical units.
time (UTC)temp
F
wind
direction
speed
MPH
gust
MPH
rain 1hr
in
rain 24hr
in
rain mn
in
humidity
%
barometer
mb
20260510020952 46 178 0.0 0.0 0.00 0.00 0.00 88 1013.8
20260510015740 46 194 1.0 2.0 0.00 0.00 0.00 89 1013.8
20260510015143 46 199 0.0 1.0 0.00 0.00 0.00 89 1013.5
20260510014511 46 277 1.0 1.0 0.00 0.00 0.00 86 1013.5
20260510013946 47 221 0.0 0.0 0.00 0.00 0.00 86 1013.2
20260510012725 47 182 1.0 1.0 0.00 0.00 0.00 87 1012.8
20260510012131 48 228 0.0 0.0 0.00 0.00 0.00 84 1013.2
20260510011556 48 209 0.0 0.0 0.00 0.00 0.00 83 1012.8
20260510010951 48 212 0.0 0.0 0.00 0.00 0.00 81 1012.8
20260510010348 49 212 0.0 0.0 0.00 0.00 0.00 82 1012.8
20260510005143 50 182 1.0 1.0 0.00 0.00 0.00 80 1012.5
20260510004550 50 198 0.0 1.0 0.00 0.00 0.00 79 1012.5
20260510003307 51 200 0.0 0.0 0.00 0.00 0.00 75 1012.1
20260510002716 52 173 0.0 1.0 0.00 0.00 0.00 73 1012.1
20260510001511 53 228 0.0 0.0 0.00 0.00 0.00 72 1012.1
20260510000943 54 222 0.0 0.0 0.00 0.00 0.00 69 1012.1
20260510000349 56 224 0.0 0.0 0.00 0.00 0.00 66 1012.1
20260509235710 57 233 0.0 0.0 0.00 0.00 0.00 64 1011.8
20260509235126 58 250 2.0 2.0 0.00 0.00 0.00 58 1011.8
20260509234543 58 231 2.0 3.0 0.00 0.00 0.00 60 1011.8
20260509233949 59 242 0.0 0.0 0.00 0.00 0.00 61 1011.8
20260509233339 59 284 2.0 2.0 0.00 0.00 0.00 57 1012.1
20260509232130 59 298 4.0 6.0 0.00 0.00 0.00 57 1012.1
20260509231509 60 232 1.0 2.0 0.00 0.00 0.00 54 1011.8
20260509230951 60 232 7.0 9.0 0.00 0.00 0.00 54 1012.1
20260509230332 61 284 5.0 6.0 0.00 0.00 0.00 53 1011.8
20260509225146 61 226 3.0 3.0 0.00 0.00 0.00 53 1011.8
20260509224535 61 231 4.0 4.0 0.00 0.00 0.00 52 1012.1
20260509223928 60 295 5.0 7.0 0.00 0.00 0.00 55 1012.1
20260509223343 60 286 6.0 9.0 0.00 0.00 0.00 53 1012.1
20260509222130 61 216 3.0 4.0 0.00 0.00 0.00 53 1012.5
20260509220917 61 209 5.0 7.0 0.00 0.00 0.00 53 1012.5
20260509220325 61 248 2.0 2.0 0.00 0.00 0.00 53 1012.1
20260509215723 61 269 4.0 4.0 0.00 0.00 0.00 52 1012.1
20260509215134 61 212 1.0 1.0 0.00 0.00 0.00 52 1012.1
20260509214520 61 268 5.0 7.0 0.00 0.00 0.00 51 1012.1
20260509213335 61 206 3.0 4.0 0.00 0.00 0.00 51 1012.1
20260509212739 62 229 4.0 7.0 0.00 0.00 0.00 51 1012.1
20260509212145 62 180 6.0 8.0 0.00 0.00 0.00 49 1012.1
20260509211542 62 220 4.0 4.0 0.00 0.00 0.00 48 1011.8
20260509210931 63 248 4.0 6.0 0.00 0.00 0.00 49 1011.8
20260509210318 64 264 5.0 8.0 0.00 0.00 0.00 49 1011.8
20260509205747 64 244 6.0 9.0 0.00 0.00 0.00 48 1011.5
20260509205134 63 212 2.0 2.0 0.00 0.00 0.00 52 1011.5
20260509204537 63 221 3.0 3.0 0.00 0.00 0.00 49 1011.8
20260509203950 63 237 1.0 2.0 0.00 0.00 0.00 47 1011.5
20260509203321 63 242 4.0 4.0 0.00 0.00 0.00 50 1011.8
20260509202753 63 251 2.0 3.0 0.00 0.00 0.00 48 1011.5
20260509202126 63 300 3.0 4.0 0.00 0.00 0.00 46 1011.5
20260509201532 63 242 4.0 4.0 0.00 0.00 0.00 46 1011.5
20260509200939 63 228 4.0 4.0 0.00 0.00 0.00 45 1011.1
20260509200309 64 279 8.0 10.0 0.00 0.00 0.00 45 1011.5
20260509195125 65 264 4.0 4.0 0.00 0.00 0.00 43 1011.5
20260509193915 63 268 2.0 3.0 0.00 0.00 0.00 46 1011.5
20260509193337 62 228 1.0 1.0 0.00 0.00 0.00 47 1011.5
20260509192748 62 265 3.0 4.0 0.00 0.00 0.00 48 1011.5
20260509191528 61 251 3.0 3.0 0.00 0.00 0.00 46 1011.5
20260509190313 62 252 2.0 4.0 0.00 0.00 0.00 46 1011.5
20260509185750 62 246 5.0 7.0 0.00 0.00 0.00 47 1011.5
20260509185114 62 273 4.0 6.0 0.00 0.00 0.00 48 1011.5
20260509184531 62 237 5.0 8.0 0.00 0.00 0.00 44 1011.5
20260509183936 62 156 2.0 3.0 0.00 0.00 0.00 43 1011.5
20260509183343 62 285 6.0 9.0 0.00 0.00 0.00 43 1011.5
20260509182727 62 286 5.0 7.0 0.00 0.00 0.00 45 1011.5
20260509182153 62 240 2.0 2.0 0.00 0.00 0.00 47 1011.5
20260509181515 62 262 5.0 9.0 0.00 0.00 0.00 47 1011.5
20260509180942 62 217 4.0 4.0 0.00 0.00 0.00 45 1011.5
20260509180315 62 257 4.0 4.0 0.00 0.00 0.00 48 1011.5
20260509175737 62 284 4.0 6.0 0.00 0.00 0.00 47 1011.5
20260509175152 63 320 2.0 3.0 0.00 0.00 0.00 45 1011.5
20260509174526 61 254 3.0 3.0 0.00 0.00 0.00 54 1011.8
20260509173310 61 293 8.0 10.0 0.00 0.00 0.00 51 1012.1
20260509172726 62 231 5.0 8.0 0.00 0.00 0.00 49 1011.8
20260509171510 61 277 3.0 4.0 0.00 0.00 0.00 55 1011.8
20260509170921 60 242 2.0 3.0 0.00 0.00 0.00 53 1012.1
20260509170323 59 292 5.0 7.0 0.00 0.00 0.00 53 1012.1
20260509165719 59 294 4.0 4.0 0.00 0.00 0.00 54 1011.8
20260509165132 58 245 0.0 0.0 0.00 0.00 0.00 57 1012.1
20260509164539 58 327 3.0 3.0 0.00 0.00 0.00 55 1012.1
20260509163934 58 228 1.0 1.0 0.00 0.00 0.00 56 1012.1
20260509162115 56 212 1.0 2.0 0.00 0.00 0.00 57 1012.5
20260509161540 56 253 1.0 1.0 0.00 0.00 0.00 58 1012.1
20260509160930 56 241 2.0 3.0 0.00 0.00 0.00 56 1012.1
20260509160345 56 312 3.0 3.0 0.00 0.00 0.00 56 1012.1
20260509155716 56 276 3.0 4.0 0.00 0.00 0.00 55 1012.5
20260509154540 56 234 1.0 2.0 0.00 0.00 0.00 55 1012.8
20260509153940 57 220 2.0 3.0 0.00 0.00 0.00 53 1012.5
20260509153324 57 254 2.0 2.0 0.00 0.00 0.00 54 1012.5
20260509152128 56 225 2.0 2.0 0.00 0.00 0.00 53 1012.5
20260509150915 56 223 3.0 4.0 0.00 0.00 0.00 54 1012.5
20260509150315 56 214 1.0 1.0 0.00 0.00 0.00 53 1012.5
20260509145740 56 294 6.0 8.0 0.00 0.00 0.00 52 1012.5
20260509145127 57 289 4.0 4.0 0.00 0.00 0.00 52 1012.1
20260509144508 57 231 0.0 1.0 0.00 0.00 0.00 52 1012.1
20260509143907 57 293 2.0 2.0 0.00 0.00 0.00 52 1011.8
20260509142746 57 240 2.0 3.0 0.00 0.00 0.00 54 1012.1
20260509141517 58 228 1.0 2.0 0.00 0.00 0.00 50 1012.1
20260509140924 58 200 2.0 2.0 0.00 0.00 0.00 51 1011.8
20260509140344 57 229 3.0 3.0 0.00 0.00 0.00 55 1012.1
20260509135710 56 181 2.0 2.0 0.00 0.00 0.00 58 1012.1
20260509135112 56 199 1.0 1.0 0.00 0.00 0.00 60 1012.5
20260509134545 55 222 0.0 1.0 0.00 0.00 0.00 57 1012.5
20260509133914 54 241 0.0 0.0 0.00 0.00 0.00 57 1012.1
20260509132743 53 217 0.0 0.0 0.00 0.00 0.00 61 1012.8
20260509132132 52 264 2.0 3.0 0.00 0.00 0.00 65 1012.8
20260509131511 52 234 0.0 0.0 0.00 0.00 0.00 62 1012.5
20260509130917 51 237 1.0 1.0 0.00 0.00 0.00 63 1012.8
20260509130311 51 290 3.0 3.0 0.00 0.00 0.00 62 1012.5
20260509125721 51 270 2.0 2.0 0.00 0.00 0.00 65 1012.5
20260509125123 51 247 1.0 2.0 0.00 0.00 0.00 65 1012.1
20260509123935 50 217 0.0 1.0 0.00 0.00 0.00 70 1012.5
20260509123351 50 226 0.0 1.0 0.00 0.00 0.00 70 1012.5
20260509122746 50 241 0.0 0.0 0.00 0.00 0.00 72 1012.5
20260509122142 49 241 0.0 0.0 0.00 0.00 0.00 71 1012.5
20260509121510 48 241 0.0 1.0 0.00 0.00 0.00 73 1012.5
20260509120914 48 241 0.0 0.0 0.00 0.00 0.00 74 1012.5
20260509120320 47 241 0.0 0.0 0.00 0.00 0.00 78 1012.8
20260509115739 47 242 0.0 0.0 0.00 0.00 0.00 81 1012.8
20260509115121 47 239 1.0 1.0 0.00 0.00 0.00 79 1012.8
20260509113926 46 241 0.0 0.0 0.00 0.00 0.00 80 1012.8
20260509113325 46 235 0.0 0.0 0.00 0.00 0.00 80 1013.2
20260509112131 46 235 0.0 0.0 0.00 0.00 0.00 81 1012.8
20260509110934 46 218 0.0 0.0 0.00 0.00 0.00 83 1012.5
20260509110313 46 218 0.0 0.0 0.00 0.00 0.00 81 1012.8
20260509104545 45 205 0.0 0.0 0.00 0.00 0.00 80 1012.5
20260509103940 45 168 1.0 1.0 0.00 0.00 0.00 78 1012.5
20260509103314 45 165 1.0 1.0 0.00 0.00 0.00 79 1012.8
20260509102735 45 228 0.0 0.0 0.00 0.00 0.00 77 1012.5
20260509102123 44 227 0.0 0.0 0.00 0.00 0.00 80 1012.5
20260509101514 44 228 0.0 0.0 0.00 0.00 0.00 80 1012.5
20260509100920 44 228 0.0 0.0 0.00 0.00 0.00 80 1012.5
20260509100325 44 228 0.0 0.0 0.00 0.00 0.00 80 1012.5
20260509095736 45 230 0.0 0.0 0.00 0.00 0.00 80 1012.5
20260509095147 45 230 0.0 1.0 0.00 0.00 0.00 79 1012.5
20260509094533 45 230 0.0 0.0 0.00 0.00 0.00 78 1012.8
20260509093330 46 231 0.0 0.0 0.00 0.00 0.00 73 1012.5
20260509092117 47 232 0.0 0.0 0.00 0.00 0.00 73 1012.8
20260509090945 47 232 0.0 0.0 0.00 0.00 0.00 71 1012.8
20260509090350 48 232 0.0 0.0 0.00 0.00 0.00 72 1012.8
20260509085712 48 232 0.0 0.0 0.00 0.00 0.00 68 1012.8
20260509085139 48 233 0.0 0.0 0.00 0.00 0.00 69 1012.8
20260509084533 48 233 0.0 0.0 0.00 0.00 0.00 71 1012.8
20260509083918 48 244 1.0 1.0 0.00 0.00 0.00 70 1013.2
20260509083337 48 239 1.0 1.0 0.00 0.00 0.00 67 1012.8
20260509082748 48 244 0.0 1.0 0.00 0.00 0.00 67 1012.8
20260509080323 48 275 2.0 2.0 0.00 0.00 0.00 70 1013.2
20260509075754 48 231 0.0 0.0 0.00 0.00 0.00 69 1013.2
20260509075135 48 263 1.0 2.0 0.00 0.00 0.00 69 1013.2
20260509073323 48 227 0.0 1.0 0.00 0.00 0.00 69 1013.2
20260509072738 48 244 1.0 1.0 0.00 0.00 0.00 67 1013.2
20260509071519 48 229 1.0 1.0 0.00 0.00 0.00 67 1013.2
20260509070324 48 221 0.0 1.0 0.00 0.00 0.00 68 1013.2
20260509065751 48 242 0.0 1.0 0.00 0.00 0.00 69 1013.2
20260509064519 47 232 0.0 0.0 0.00 0.00 0.00 68 1013.2
20260509063914 47 241 0.0 0.0 0.00 0.00 0.00 74 1013.2
20260509063311 47 232 0.0 0.0 0.00 0.00 0.00 71 1013.2
20260509062719 46 239 0.0 0.0 0.00 0.00 0.00 75 1013.2
20260509062128 46 239 0.0 0.0 0.00 0.00 0.00 76 1013.2
20260509060912 44 208 0.0 0.0 0.00 0.00 0.00 80 1013.5
20260509060335 44 208 0.0 0.0 0.00 0.00 0.00 82 1013.2
20260509054513 43 208 0.0 0.0 0.00 0.00 0.00 80 1013.5
20260509053935 44 208 0.0 0.0 0.00 0.00 0.00 78 1013.5
20260509053347 45 208 0.0 0.0 0.00 0.00 0.00 78 1013.5
20260509052735 44 208 0.0 0.0 0.00 0.00 0.00 80 1013.5
20260509052136 45 208 0.0 0.0 0.00 0.00 0.00 80 1013.8
20260509051536 45 208 0.0 0.0 0.00 0.00 0.00 79 1013.8
20260509050939 45 208 0.0 1.0 0.00 0.00 0.00 77 1013.5
20260509045724 45 208 0.0 0.0 0.00 0.00 0.00 77 1013.8
20260509045135 45 208 0.0 0.0 0.00 0.00 0.00 78 1013.8
20260509044542 45 208 0.0 0.0 0.00 0.00 0.00 78 1013.8
20260509043947 46 208 0.0 0.0 0.00 0.00 0.00 79 1013.8
20260509043336 46 208 0.0 0.0 0.00 0.00 0.00 77 1013.8
20260509042740 46 208 0.0 0.0 0.00 0.00 0.00 76 1013.8
20260509042146 46 208 0.0 0.0 0.00 0.00 0.00 76 1013.8
20260509041539 46 208 0.0 0.0 0.00 0.00 0.00 76 1013.8
20260509040310 46 208 0.0 0.0 0.00 0.00 0.00 75 1013.8
20260509035750 47 208 0.0 0.0 0.00 0.00 0.00 74 1013.8
20260509035153 47 213 0.0 0.0 0.00 0.00 0.00 74 1013.8
20260509034542 47 213 0.0 0.0 0.00 0.00 0.00 74 1013.8
20260509033926 47 213 0.0 0.0 0.00 0.00 0.00 75 1014.2
20260509033318 47 196 0.0 0.0 0.00 0.00 0.00 75 1013.8
20260509031510 47 208 0.0 1.0 0.00 0.00 0.00 76 1013.8
20260509030315 47 209 0.0 0.0 0.00 0.00 0.00 72 1013.8
20260509025711 48 209 0.0 0.0 0.00 0.00 0.00 70 1013.8
20260509025140 48 209 0.0 0.0 0.00 0.00 0.00 69 1013.8
20260509024550 49 214 0.0 0.0 0.00 0.00 0.00 67 1014.2
20260509023918 49 213 0.0 1.0 0.00 0.00 0.00 69 1014.2
20260509023313 48 206 0.0 1.0 0.00 0.00 0.00 68 1013.8
20260509022717 48 217 0.0 0.0 0.00 0.00 0.00 74 1014.2
20260509021510 48 217 0.0 0.0 0.00 0.00 0.00 75 1014.2